[[{"header":{"parameterUnit":"m.s-1","parameterCategory":1,"la1":30.2991,"la2":30.254,"lo1":-89.0895,"lo2":-89.0444,"dy":0.0017,"dx":0.0017,"nx":28,"ny":28,"refTime":"2023-10-09T03:00:00:Z","depth":0,"parameterNumber":2,"parameterNumberName":"U-component_of_WINDS"},"data":[0,0,0,0,0,0,0,0,0,0,0,0,0,0,0,0,0,0,0,0,0,0,0,0,0,0,0,0,0,0,0,0,0,0,0,0,0,0,0,0,0,0,0,0,0,0,0,0,0,0,0,0,0,0,0,0,0,0,3.0832,3.0832,0,3.0828,3.0828,3.0828,3.0748,3.0746,3.0744,3.0742,3.0737,3.0739,3.0741,0,0,0,0,0,0,0,0,0,0,0,0,0,3.0767,3.0768,3.0832,3.0832,3.0832,3.0828,3.0828,3.0828,3.0749,3.0746,3.0744,3.0741,3.0737,3.0739,3.0741,0,0,0,0,0,0,0,0,0,0,0,0,0,3.0782,3.0769,3.0832,3.0792,3.0788,3.0828,3.0828,3.0828,3.0749,3.0746,3.0743,3.074,3.0736,3.0739,3.0741,3.0819,0,0,3.075,3.0751,0,0,0,0,0,0,0,0,3.0781,3.0785,3.0798,3.0794,3.079,3.0785,3.0803,3.0825,3.075,3.0764,3.0742,3.0739,3.0756,3.0757,3.0763,3.0819,3.0819,3.075,3.0751,3.0753,3.0753,0,0,0,0,0,0,0,3.078,3.0784,3.083,3.0798,3.0794,3.0773,3.0771,3.0807,3.0777,3.0762,3.0757,3.0757,3.0753,3.076,3.0762,3.0818,3.075,3.0752,3.0754,3.0755,3.0932,3.0935,0,0,0,0,0,0,3.0785,3.0784,3.083,3.083,3.0778,3.0776,3.0775,3.079,3.0776,3.0771,3.076,3.0754,3.0757,3.0759,3.0762,3.0847,3.0752,3.0755,3.0756,3.0929,3.0933,3.0936,0,0,0,0,0,0,3.0784,3.079,3.083,3.0805,3.0809,3.0781,3.0798,3.0792,3.0798,3.0775,3.0769,3.0773,3.0755,3.0758,3.0804,3.0846,3.0756,3.0759,3.0925,3.093,3.0934,3.1021,0,0,0,0,0,0,3.0783,3.079,3.082,3.0807,3.0811,3.0874,3.0801,3.0794,3.0803,3.0795,3.0785,3.078,3.0753,3.08,3.0807,3.0848,3.0761,3.0921,3.0927,3.0933,3.1014,3.1028,3.104,0,0,0,0,0,3.078,3.0846,3.0822,3.0828,3.0848,3.0877,3.0879,3.0846,3.0807,3.0836,3.082,3.0781,3.0841,3.0806,3.0812,3.0855,3.0918,3.0926,3.0932,3.1008,3.1025,3.104,0,0,0,0,0,0,3.0866,3.0844,3.0817,3.0881,3.0881,3.0864,3.0899,3.0866,3.0878,3.0869,3.0828,3.0826,3.0878,3.0871,3.0833,3.0926,3.0872,3.0881,3.0928,3.0944,3.0956,3.0955,3.0763,0,0,0,0,0,3.0893,3.0919,3.0897,3.0955,3.0957,3.0928,3.094,3.0914,3.0913,3.0913,3.09,3.09,3.0918,3.0931,3.0947,3.1014,3.1008,3.1046,3.1059,3.1069,3.1076,3.1105,3.1121,3.0959,3.0959,3.0959,0,0,3.0947,3.0938,3.0957,3.0972,3.0969,3.0995,3.0929,3.0961,3.0979,3.0918,3.0959,3.095,3.0947,3.1002,3.1026,3.0998,3.112,3.1078,3.1087,3.1088,3.1114,3.113,3.1143,3.0964,3.0963,3.0962,0,0,3.1058,3.1056,3.1101,3.1099,3.1096,3.1076,3.1087,3.1074,3.1065,3.1106,3.1059,3.108,3.1114,3.1112,3.1115,3.1223,3.1185,3.1229,3.1295,3.1324,3.1337,3.1348,3.1381,3.1394,3.1237,3.1237,3.1237,0,3.1126,3.1164,3.1129,3.1162,3.1168,3.1113,3.1157,3.1157,3.1159,3.1164,3.1133,3.1171,3.1166,3.1217,3.1243,3.125,3.1258,3.1229,3.1338,3.1349,3.1358,3.139,3.1403,3.1242,3.1242,3.1241,3.1241,0,3.1245,3.1272,3.1309,3.131,3.1321,3.136,3.1328,3.1343,3.1316,3.1299,3.1339,3.133,3.1341,3.1352,3.1327,3.1399,3.1381,3.1346,3.129,3.1379,3.1408,3.142,3.1249,3.1248,3.1246,3.1245,0,0,3.141,3.1389,3.1403,3.1401,3.1392,3.1411,3.1446,3.1456,3.1467,3.1471,3.1496,3.1524,3.1489,3.1493,3.1468,3.1494,3.1573,3.1454,3.1453,3.1472,3.1646,3.167,3.1685,3.1549,3.1552,3.1554,3.1644,0,3.1514,3.1571,3.1539,3.16,3.1622,3.1569,3.1598,3.1595,3.1579,3.1595,3.1577,3.1596,3.1552,3.1553,3.1577,3.1558,3.1607,3.1552,3.1569,3.157,3.1567,3.17,3.1727,3.1813,3.1656,3.1658,3.1659,0,3.1642,3.1648,3.1711,3.1693,3.1701,3.1729,3.1732,3.1749,3.1743,3.1729,3.1732,3.1699,3.1729,3.1677,3.1716,3.1679,3.1684,3.1676,3.1679,3.1676,3.1617,3.1697,3.184,3.1851,3.1677,3.1676,3.1675,0,3.175,3.1774,3.1813,3.1814,3.1796,3.1815,3.1809,3.18,3.1806,3.181,3.1813,3.1821,3.1825,3.1831,3.1799,3.1765,3.184,3.1787,3.1827,3.1828,3.1842,3.1841,3.1984,3.1854,3.1853,3.1853,3.1853,0,3.1866,3.1906,3.1861,3.1885,3.1926,3.1888,3.193,3.1918,3.1909,3.1928,3.1885,3.1903,3.1863,3.1876,3.1853,3.1885,3.1889,3.1876,3.1868,3.1878,3.1879,3.1878,3.1869,3.1857,3.1856,3.1855,3.1855,0,3.1992,3.1965,3.2003,3.1982,3.1977,3.2008,3.1989,3.2009,3.199,3.2014,3.2018,3.1987,3.2001,3.1971,3.1981,3.1965,3.201,3.1995,3.2012,3.2006,3.2046,3.2041,3.219,3.2206,3.2069,3.2071,3.2072,0,3.2066,3.2095,3.2076,3.2085,3.208,3.2096,3.2101,3.2065,3.2072,3.2065,3.2085,3.2095,3.21,3.2124,3.2102,3.2109,3.2091,3.2143,3.2091,3.2098,3.2086,3.2083,3.2083,3.2152,3.2154,3.2155,3.2156,0,3.2199,3.2183,3.2193,3.2197,3.2204,3.2206,3.2205,3.2215,3.2175,3.2186,3.2198,3.2202,3.2211,3.222,3.2221,3.2212,3.2176,3.2173,3.2182,3.2189,3.2196,3.2188,3.2036,3.2169,3.2168,3.2167,3.2166,3.2166,3.2298,3.2319,3.2307,3.2318,3.2313,3.2312,3.2328,3.231,3.232,3.2323,3.2301,3.2318,3.2307,3.2304,3.2299,3.231,3.2286,3.2301,3.2303,3.2306,3.231,3.2197,3.2311,3.2311,3.231,3.231,3.231,0,3.2424,3.2413,3.2424,3.2422,3.243,3.2397,3.2392,3.2401,3.2415,3.2409,3.2414,3.2427,3.2434,3.2413,3.2416,3.2429,3.2413,3.2431,3.2427,3.2425,3.2334,3.2324,3.2444,3.2444,3.2444,3.2444,3.2444,3.2444,3.249,3.2522,3.2504,3.2532,3.2521,3.2536,3.2535,3.2533,3.2527,3.2542,3.2548,3.2533,3.252,3.2521,3.2526,3.2519,3.2521,3.2544,3.2531,3.2445,3.2432,3.242,3.2409,3.2546,3.2546,3.262,3.2621,3.2622]},{"header":{"parameterUnit":"m.s-1","parameterCategory":1,"la1":30.2991,"la2":30.254,"lo1":-89.0895,"lo2":-89.0444,"dy":0.0017,"dx":0.0017,"nx":28,"ny":28,"refTime":"2023-10-09T03:00:00:Z","depth":0,"parameterNumber":3,"parameterNumberName":"V-component_of_WINDS"},"data":[0,0,0,0,0,0,0,0,0,0,0,0,0,0,0,0,0,0,0,0,0,0,0,0,0,0,0,0,0,0,0,0,0,0,0,0,0,0,0,0,0,0,0,0,0,0,0,0,0,0,0,0,0,0,0,0,0,0,2.4632,2.4632,0,2.4659,2.4659,2.466,2.4643,2.4643,2.4642,2.4641,2.4667,2.4669,2.467,0,0,0,0,0,0,0,0,0,0,0,0,0,2.4562,2.4563,2.4632,2.4632,2.4632,2.4659,2.4659,2.466,2.4643,2.4642,2.4642,2.4641,2.4667,2.4669,2.467,0,0,0,0,0,0,0,0,0,0,0,0,0,2.4591,2.4564,2.4632,2.4627,2.4627,2.4659,2.4659,2.466,2.4644,2.4642,2.4641,2.464,2.4666,2.4668,2.4671,2.4707,0,0,2.4677,2.4678,0,0,0,0,0,0,0,0,2.4589,2.4594,2.4628,2.4628,2.4628,2.4647,2.4644,2.4676,2.4644,2.4637,2.4641,2.464,2.4661,2.4664,2.4671,2.4709,2.471,2.4677,2.4679,2.468,2.468,0,0,0,0,0,0,0,2.4587,2.4592,2.4642,2.4628,2.4628,2.4623,2.4626,2.465,2.4656,2.4638,2.4637,2.464,2.4661,2.4669,2.4672,2.471,2.4677,2.4679,2.4681,2.4681,2.4776,2.4777,0,0,0,0,0,0,2.4586,2.4591,2.4642,2.4643,2.4605,2.4625,2.4629,2.4642,2.4655,2.4656,2.4641,2.4639,2.4666,2.4669,2.4673,2.4714,2.468,2.4682,2.4683,2.4774,2.4776,2.4777,0,0,0,0,0,0,2.4585,2.4591,2.464,2.4617,2.4623,2.4628,2.4643,2.4643,2.4651,2.4658,2.4658,2.4649,2.4666,2.467,2.4698,2.4715,2.4683,2.4684,2.4773,2.4775,2.4776,2.4799,0,0,0,0,0,0,2.4583,2.459,2.4605,2.4617,2.4624,2.4667,2.4644,2.4644,2.4655,2.4653,2.4665,2.4666,2.4665,2.4695,2.47,2.4718,2.4686,2.4771,2.4774,2.4776,2.4797,2.4802,2.4806,0,0,0,0,0,2.458,2.4611,2.4606,2.4612,2.4643,2.4668,2.4671,2.467,2.4657,2.4671,2.4675,2.4666,2.4713,2.4698,2.4704,2.4722,2.477,2.4773,2.4776,2.4795,2.4801,2.4806,0,0,0,0,0,0,2.4601,2.4613,2.4607,2.4643,2.4654,2.4665,2.4683,2.4676,2.4691,2.4689,2.4686,2.4688,2.4718,2.4723,2.4706,2.4757,2.4739,2.4743,2.4752,2.4758,2.4762,2.4759,2.4688,0,0,0,0,0,2.461,2.463,2.4638,2.4669,2.4675,2.4678,2.4689,2.4686,2.4698,2.4702,2.4708,2.4719,2.4736,2.4747,2.4764,2.4798,2.4799,2.4813,2.4818,2.4821,2.4824,2.484,2.4846,2.4786,2.4786,2.4786,0,0,2.4628,2.4637,2.4649,2.4673,2.4682,2.4701,2.4682,2.4704,2.4717,2.4706,2.4732,2.4737,2.4749,2.478,2.4794,2.4785,2.4841,2.4825,2.4827,2.4828,2.4843,2.4849,2.4854,2.4788,2.4788,2.4787,0,0,2.467,2.468,2.4705,2.4714,2.4727,2.4728,2.4734,2.4745,2.4748,2.4775,2.4765,2.4781,2.4811,2.4819,2.4827,2.4871,2.4862,2.4876,2.4898,2.4914,2.4918,2.4922,2.4935,2.494,2.4879,2.4879,2.4879,0,2.4691,2.472,2.4719,2.4741,2.475,2.474,2.4764,2.4773,2.479,2.4797,2.4787,2.4823,2.483,2.4862,2.4872,2.488,2.4885,2.4874,2.4918,2.4922,2.4926,2.4938,2.4943,2.4881,2.4881,2.488,2.488,0,2.4744,2.4764,2.4783,2.4799,2.4811,2.4834,2.4835,2.4847,2.4843,2.4845,2.4871,2.488,2.4896,2.4904,2.4901,2.4934,2.4928,2.4918,2.49,2.4933,2.4944,2.4949,2.4883,2.4882,2.4882,2.4882,0,0,2.48,2.4815,2.4821,2.4827,2.484,2.4855,2.4877,2.4893,2.4902,2.4915,2.4931,2.4956,2.4946,2.4955,2.4953,2.4967,2.4997,2.4955,2.4955,2.4961,2.5032,2.5038,2.5043,2.4993,2.4993,2.4994,2.503,0,2.4842,2.488,2.4878,2.4913,2.493,2.492,2.4938,2.4947,2.495,2.4964,2.4966,2.4983,2.497,2.4975,2.4988,2.4991,2.5011,2.4989,2.5006,2.5007,2.5002,2.505,2.5056,2.509,2.5035,2.5036,2.5036,0,2.4895,2.4908,2.4945,2.4952,2.496,2.4976,2.4989,2.5004,2.5013,2.5014,2.5023,2.5018,2.5038,2.502,2.5047,2.5031,2.5039,2.5041,2.5042,2.5042,2.5022,2.5049,2.5101,2.5105,2.5044,2.5043,2.5043,0,2.4929,2.4956,2.4981,2.4987,2.4997,2.5009,2.5014,2.5022,2.5031,2.5043,2.5048,2.5062,2.5069,2.5079,2.5077,2.5065,2.5104,2.5087,2.5103,2.5103,2.511,2.5109,2.5162,2.5118,2.5118,2.5118,2.5118,0,2.4975,2.4997,2.4996,2.5011,2.5035,2.5032,2.5055,2.5059,2.5066,2.508,2.5073,2.5086,2.5084,2.5097,2.5096,2.5117,2.5121,2.512,2.5119,2.512,2.5119,2.5123,2.512,2.5119,2.5119,2.5119,2.5119,0,2.5017,2.5017,2.5043,2.505,2.5053,2.5069,2.5075,2.5088,2.509,2.5108,2.5112,2.5114,2.5128,2.5128,2.5145,2.5144,2.5169,2.5166,2.5166,2.5164,2.518,2.5177,2.5235,2.5241,2.5195,2.5196,2.5196,0,2.5045,2.5061,2.507,2.5079,2.5084,2.5099,2.5108,2.5105,2.5114,2.5125,2.5137,2.5151,2.5162,2.5186,2.5188,2.52,2.5197,2.5216,2.5198,2.5198,2.5194,2.5192,2.5193,2.5219,2.5219,2.522,2.522,0,2.5093,2.5092,2.5105,2.5118,2.5128,2.5138,2.5147,2.5155,2.5153,2.5164,2.5178,2.5187,2.5204,2.5217,2.5229,2.5233,2.5225,2.5226,2.523,2.5229,2.5227,2.5226,2.5173,2.5224,2.5224,2.5223,2.5223,2.5223,2.5127,2.514,2.5148,2.5162,2.5168,2.5176,2.5188,2.5191,2.5203,2.5216,2.5214,2.523,2.5237,2.5252,2.5257,2.5268,2.5262,2.5268,2.5269,2.527,2.5271,2.5227,2.5271,2.5271,2.5271,2.5271,2.5271,0,2.5173,2.5177,2.519,2.5202,2.5213,2.5206,2.5215,2.5224,2.5238,2.5245,2.5256,2.5272,2.5284,2.5287,2.5299,2.5307,2.5304,2.531,2.5309,2.5309,2.5278,2.5272,2.5313,2.5313,2.5313,2.5313,2.5313,2.5313,2.5198,2.5219,2.5219,2.5242,2.5246,2.5261,2.5267,2.5274,2.5279,2.5297,2.5307,2.5309,2.5314,2.5326,2.5336,2.5337,2.534,2.5347,2.5346,2.5316,2.5312,2.5308,2.5302,2.5349,2.5349,2.5377,2.5377,2.5377]}]]